Current Version              Previous Version:    01  02  03  04  05  06  07  08  09  10  11  12  13  14  15  16  17  18  19  20  21  22  23  24  25  26  27  28  29  30  
   31  32  33  34  35  36  37  38  39  40  41  42  43  44  45  46  47  48  49  50  51  52  53  54  55  56  57  58  59  60  

[Printable]
309
ASUS44 KFWD 271115
RWRTX
NORTH TEXAS HOURLY WEATHER ROUNDUP
NATIONAL WEATHER SERVICE FORT WORTH TX
600 AM CDT WED AUG 27 2014

NOTE: "FAIR" INDICATES FEW OR NO CLOUDS BELOW 12,000 FEET WITH NO
SIGNIFICANT WEATHER AND/OR OBSTRUCTIONS TO VISIBILITY.

TXZ118-119-271200-
DALLAS/FORT WORTH METROPLEX

CITY           SKY/WX    TMP DP  RH WIND       PRES   REMARKS
DFW AIRPORT    PTCLDY    78  70  76 SE6       30.02S
DALLAS LOVE    PTCLDY    80  71  74 E6        30.02S
FTW MEACHAM    CLEAR     80  70  71 E5        30.02S
DAL-EXECUTIVE  CLEAR     75  70  84 CALM      30.02S
FTW-ALLIANCE   PTCLDY    77  69  76 E3        30.01F
FTW-NAS-JRB    PTCLDY    82  67  60 E5        30.06S
FTW-SPINKS     CLEAR     74  68  82 CALM      30.04S
ARLINGTON      CLEAR     78  70  76 E3        30.02S
GRAND PRAIRIE  CLEAR     78  68  72 E3        30.03F
ADDISON        CLEAR     79  70  73 E6        30.03F
LANCASTER      CLEAR     72  66  83 CALM      30.03S
$$

TXZ091>094-102>105-117-120-121-131>134-271200-
NORTH CENTRAL TEXAS

CITY           SKY/WX    TMP DP  RH WIND       PRES   REMARKS
SHRMAN/DENISON CLEAR     74  69  84 E7        30.05S
GAINESVILLE    CLEAR     73  69  88 SE5       30.06R
BOWIE          CLEAR     73  69  89 CALM      30.05S
BRIDGEPORT     CLEAR     72  65  78 CALM      30.05S
DECATUR        CLEAR     74  67  79 CALM      30.04F
DENTON         CLEAR     76  70  82 CALM      30.02S
MCKINNEY       CLEAR     73  70  90 CALM      30.03S
ROCKWALL       CLEAR     74  71  89 CALM      30.02S
TERRELL        CLEAR     75  72  90 NE3       30.02F
WAXAHACHIE     CLEAR     73  67  82 CALM      30.03S
CLEBURNE       CLEAR     75  72  88 E3        30.04S
GRANBURY       CLEAR     77  68  74 CALM      30.03S
$$

TXZ083>090-098>101-113>116-127>130-139>142-154-155-271200-
WESTERN NORTH TEXAS

CITY           SKY/WX    TMP DP  RH WIND       PRES   REMARKS
WICHITA FALLS  CLEAR     75  67  76 SE3       30.03S
WF-KICKAPOO    CLEAR     75  66  73 SE3       30.04S
VERNON         CLEAR     78  64  63 SE5       30.05R
ABILENE        CLEAR     75  65  70 SE7       30.05F
ABILENE-DYESS  CLEAR     74  68  81 SE8       30.04S
BRECKENRIDGE   CLEAR     79  65  62 SE6       30.03S
GRAHAM         CLEAR     75  66  71 CALM      30.02R
MINERAL WELLS  CLEAR     74  67  78 SE6       30.01S
STEPHENVILLE   CLEAR     75  66  74 CALM      30.06S
COMANCHE       CLEAR     73  66  79 CALM      30.04S
BROWNWOOD      PTCLDY    73  64  73 CALM      30.04S
COLEMAN        CLEAR     74  66  75 CALM      30.06S
BRADY          CLEAR     73  66  78 CALM      30.05S
$$

TXZ143>147-156>162-174-175-271200-
CENTRAL TEXAS

CITY           SKY/WX    TMP DP  RH WIND       PRES   REMARKS
WACO           CLEAR     75  69  81 CALM      30.01R
WACO-MCGREGOR  CLEAR     73  63  68 NE3       30.02S
HILLSBORO      CLEAR     75  68  77 E7        30.02S
CORSICANA      CLEAR     76  70  82 E3        30.02S
MEXIA          CLEAR     74  70  87 CALM      30.01R
HEARNE           N/A     74  69  85 CALM      30.00S
CAMERON        CLEAR     74  70  88 CALM      30.00R
TEMPLE         CLEAR     73  64  73 NE3       30.01R
KILLEEN        CLEAR     77  72  83 SW6       30.01S
KILLEEN-SKYLRK CLEAR     73  64  73 CALM      30.01R
FORT HOOD      CLEAR     77  70  79 CALM      30.02R
GATESVILLE     CLEAR     73  68  83 CALM      30.04R
HAMILTON       CLEAR     73  66  79 S12       30.04S
LAMPASAS       CLEAR     73  70  90 CALM      30.02S
$$

TXZ095>097-106>112-122>126-135>138-148>153-164>167-271200-
EAST TEXAS

CITY           SKY/WX    TMP DP  RH WIND       PRES   REMARKS
PARIS          CLEAR     72  64  78 E8        30.05S
SULPHUR SPRNGS CLEAR     72  71  96 CALM      30.05S FOG
CLARKSVILLE    CLEAR     75  72  91 NE3       30.05R
MOUNT PLEASANT CLEAR     72  71  98 NE3       30.05S
GILMER         CLEAR     73  73 100 CALM      30.04F
MINEOLA        CLEAR     72  72 100 CALM      30.03F FOG
TYLER          CLEAR     74  70  87 CALM      30.02S
LONGVIEW       CLEAR     73  70  90 CALM      30.02S
MARSHALL       PTCLDY    73  71  92 CALM      30.04F
ATHENS         CLEAR     70  68  94 CALM      30.01S
PALESTINE      CLEAR     72  70  92 CALM      30.02S
JACKSONVILLE   CLEAR     73  69  90 NE3       30.04S
HENDERSON      CLEAR     70  70  99 CALM      30.04S FOG
NACOGDOCHES    CLEAR     66  64  94 CALM      30.02S
LUFKIN         CLEAR     73  69  87 N5        30.00R
$$

SUPPLEMENTAL OBSERVATIONS (CENTRAL)

CITY           SKY/WX    TMP DP  RH WIND       PRES   REMARKS
LAKE TEXOMA      N/A     73  70  88 SE3         N/A
CADDO GRASSLND   N/A     70  66  88 N1          N/A
PAT MAYSE LAKE   N/A     72  68  88 N3          N/A
GREENVILLE       N/A     73  68  83 NE3         N/A
CEDAR HILL       N/A     75  68  78 SE2         N/A
PALESTINE        N/A     70  68  94 CALM        N/A
LAKE LIMESTONE   N/A     73  70  88 NE2         N/A
MCGREGOR         N/A     73  66  78 CALM        N/A
TEMPLE           N/A     75  70  83 N1          N/A
$$

SUPPLEMENTAL OBSERVATIONS (WEST)

CITY           SKY/WX    TMP DP  RH WIND       PRES   REMARKS
POSSUM KINGDOM   N/A     75  64  69 SE3         N/A
LBJ GRASSLAND    N/A     75  68  78 E3          N/A
GRANBURY         N/A     75  66  73 CALM        N/A
COMANCHE         N/A     73  64  73 S3          N/A
HAMBY            N/A     75  64  69 SE7         N/A
IVIE RESERVOIR   N/A     73  64  73 E6          N/A
COLORADO BEND    N/A     72  66  83 SE1         N/A
$$

SUPPLEMENTAL OBSERVATIONS (EAST)

CITY           SKY/WX    TMP DP  RH WIND       PRES   REMARKS
CLARKSVILLE      N/A     72  68  88 NE2         N/A
TEXARKANA        N/A     68  66  94 CALM        N/A
LINDEN           N/A     72  70  94 CALM        N/A
CADDO LAKE       N/A     66  64  94 CALM        N/A
GILMER           N/A     72  68  88 CALM        N/A
HENDERSON        N/A     72  68  88 CALM        N/A
LUFKIN           N/A     70  66  88 MISG        N/A
N SABINE NF      N/A     66  64  94 MISG        N/A
S SABINE NF      N/A     68  66  94 CALM        N/A
$$

SUPPLEMENTAL OBSERVATIONS ARE A COLLECTION OF AUTOMATED INSTRUMENTS
THAT ARE MAINTAINED BY A VARIETY OF FEDERAL AND STATE AGENCIES.
CERTAIN ELEMENTS...SUCH AS HUMIDITY VALUES AND SUSTAINED WIND
SPEEDS...MAY BE APPROXIMATED.